Temp
86 89 90 90 93 93 95 95 92 90 90 89 90 89 88 89 88 86 85 84 85 90
86 86 90 89 89 93 92 96 93 91 89 89 89 88 87 89 86 87 85 85 84 87
88 87 88 90 88 89 92 91 93 90 90 89 89 88 86 88 87 84 87 88 84 84
89 89 88 89 89 89 89 90 89 90 89 89 89 88 86 87 88 84 83 85 84 82
89 88 89 88 90 90 89 89 89 89 88 89 89 88 86 86 88 85 83 84 83 82
88 88 88 88 88 90 88 89 89 89 88 88 89 88 87 87 87 86 85 85 83 83
88 88 89 89 88 89 89 88 88 88 88 89 89 89 89 88 87 87 87 86 86 85
88 89 88 88 88 89 88 89 88 88 89 89 90 92 88 89 88 86 86 87 86 86
89 88 87 87 87 87 87 87 87 88 88 88 92 80 74 84 89 88 86 85 85 86
89 87 87 87 86 86 86 87 86 87 88 87 88 71 70 72 89 88 87 86 86 86
88 87 87 86 86 85 87 86 86 86 87 87 89 68 67 70 85 88 88 87 86 85
89 87 86 85 85 86 86 86 86 87 86 86 87 65 63 68 86 86 86 87 87 85
89 88 86 86 85 86 86 86 88 86 87 80 86 67 60 67 87 85 87 86 85 70
90 88 87 87 86 86 86 87 84 82 84 85 84 82 59 59 79 84 88 88 89 88
MSLP
1011.90 1012.26 1012.64 1012.93 1012.85 1013.07 1013.07 1013.33 1014.06 1014.79 1015.10 1015.57 1015.78 1016.23 1016.65 1017.17 1017.57 1017.85 1018.20 1018.31 1018.31 1017.84
1010.83 1011.28 1011.33 1011.87 1012.38 1012.52 1012.66 1012.74 1013.53 1014.22 1014.73 1015.02 1015.26 1015.72 1016.36 1016.66 1017.23 1017.47 1017.90 1017.97 1018.26 1018.21
1009.48 1010.12 1010.61 1011.01 1011.49 1011.78 1012.01 1012.59 1012.73 1013.62 1014.13 1014.54 1014.87 1015.35 1015.85 1016.04 1016.62 1017.13 1017.32 1017.43 1017.76 1018.02
1008.02 1008.73 1009.46 1009.89 1010.40 1010.97 1011.52 1011.85 1012.50 1012.90 1013.55 1013.97 1014.36 1014.85 1015.33 1015.49 1015.73 1016.48 1016.87 1017.07 1017.31 1017.63
1006.71 1007.46 1008.03 1008.65 1009.19 1009.98 1010.57 1011.19 1011.70 1012.25 1012.79 1013.15 1013.55 1014.09 1014.59 1014.90 1014.88 1015.45 1015.94 1016.44 1016.78 1016.85
1005.48 1006.04 1006.48 1007.20 1008.03 1008.64 1009.26 1009.88 1010.51 1011.04 1011.53 1012.07 1012.47 1013.00 1013.52 1013.91 1014.21 1014.44 1015.05 1015.41 1015.79 1016.00
1004.02 1004.34 1005.07 1005.96 1006.67 1007.35 1007.97 1008.71 1009.32 1009.78 1010.35 1010.87 1011.36 1011.89 1012.27 1012.71 1013.07 1013.41 1013.93 1014.30 1014.60 1014.96
1002.70 1003.48 1004.41 1005.04 1005.67 1006.31 1006.97 1007.47 1008.07 1008.63 1009.14 1009.78 1010.21 1010.53 1011.08 1011.46 1011.96 1012.40 1012.69 1013.00 1013.43 1013.97
1002.01 1002.80 1003.35 1003.99 1004.50 1005.28 1005.81 1006.41 1007.05 1007.51 1007.79 1008.09 1008.40 1008.73 1009.55 1010.29 1010.61 1010.91 1011.18 1011.68 1012.42 1012.93
1001.04 1001.74 1002.43 1003.36 1004.21 1004.59 1005.10 1005.79 1005.99 1006.33 1006.80 1007.05 1007.41 1007.74 1008.31 1009.13 1009.34 1009.52 1010.24 1010.81 1011.19 1011.95
1000.04 1000.67 1001.68 1002.35 1002.60 1003.15 1003.85 1004.46 1004.97 1005.49 1006.03 1006.58 1006.83 1007.18 1007.68 1008.38 1009.08 1009.08 1009.19 1009.63 1010.18 1010.46
998.90 999.90 1000.66 1001.00 1001.43 1002.99 1003.72 1004.21 1004.80 1005.44 1005.90 1006.22 1006.59 1007.16 1007.99 1008.74 1008.71 1008.70 1008.52 1008.69 1008.70 1008.77
998.12 998.85 999.38 1000.34 1001.37 1002.15 1002.86 1003.30 1003.69 1004.02 1004.57 1005.23 1005.94 1006.89 1008.12 1009.19 1008.88 1008.16 1007.44 1007.44 1007.79 1008.35
997.28 998.10 999.09 999.88 1000.46 1001.11 1001.63 1001.94 1002.50 1002.49 1002.37 1002.73 1004.49 1005.38 1006.09 1007.26 1007.80 1007.02 1006.58 1006.05 1005.87 1006.85
Wind_Speed
19 15 14 14 13 11 11 10 10 12 13 13 11 10 9 8 8 8 8 8 8 5
19 19 16 16 14 13 11 10 12 14 15 14 12 12 11 9 9 9 9 9 9 8
19 19 18 15 16 15 13 14 12 14 15 14 13 13 13 10 11 11 9 9 10 9
19 21 19 18 17 17 15 14 15 14 15 15 14 14 14 12 12 13 12 11 11 12
20 20 20 19 19 18 17 16 16 15 16 16 16 15 15 16 14 15 15 14 13 14
21 21 21 21 20 20 19 19 19 18 18 17 17 17 17 17 17 17 16 16 16 15
22 23 21 20 20 20 19 19 19 19 18 18 18 18 19 18 17 18 17 17 17 17
21 20 18 19 20 19 19 19 19 19 19 19 18 17 19 19 18 17 18 18 17 18
19 19 20 19 20 19 20 20 19 20 20 21 17 21 21 20 18 19 18 17 17 16
18 19 19 18 17 18 19 18 20 21 21 21 21 19 23 24 19 18 17 17 16 16
19 19 17 18 21 20 18 19 18 18 18 18 17 16 20 24 22 18 18 18 18 18
19 18 18 21 20 15 15 16 16 15 16 17 17 13 15 17 20 20 19 19 21 22
17 18 19 17 15 13 15 15 13 14 15 15 16 10 12 15 15 18 17 20 19 17
16 15 14 14 14 14 15 14 16 17 18 18 15 16 22 24 20 19 16 15 14 15
Wind_Direction
210 215 216 214 229 218 227 214 211 201 210 214 206 210 199 201 218 203 210 210 231 237
208 215 216 221 207 226 221 222 208 207 209 211 209 207 197 219 205 209 212 205 210 232
208 210 215 211 216 215 218 218 210 207 209 210 208 204 202 203 202 211 212 220 198 216
207 208 210 214 211 213 213 206 213 203 210 210 207 204 204 216 209 209 215 217 208 212
204 206 208 210 210 207 211 207 204 206 206 208 209 205 208 211 210 209 213 211 214 217
207 205 206 206 208 206 204 206 206 204 204 205 208 207 210 215 216 214 215 213 212 216
207 207 206 206 206 207 205 204 204 204 203 204 205 208 213 213 217 218 216 216 217 216
211 210 206 207 207 208 207 206 207 204 203 205 208 209 211 213 214 218 218 216 216 219
207 206 207 207 208 207 208 207 207 209 207 206 209 207 197 210 214 216 216 215 215 222
207 206 207 207 210 213 212 210 211 211 210 212 215 198 192 196 217 215 213 213 212 212
205 207 202 204 209 210 207 212 216 218 219 220 221 200 195 194 214 223 218 216 213 212
203 201 201 208 211 209 212 215 220 223 225 228 235 199 200 195 215 226 226 221 217 211
202 203 206 206 206 206 210 214 212 215 222 230 238 213 191 202 234 232 230 230 230 212
205 204 204 201 200 199 201 204 205 203 201 198 214 210 179 191 218 236 235 235 220 218